map of FAO home
FAO - Airport
Location
City:  Faro, Faro, Portugal
ICAO:LPFR
IATA:FAO

Details
Type:Airport (Aerodrome, Airfield)
Use:Public/Civil, International (customs port of entry)
Latitude:3700'52"N (37.014425)
Longitude:757'57"W (-7.965910)
Datum:WGS 1984
Elevation:24 ft (7 m)
Variation:1.61W (WMM2015v2 magnetic declination)
0.15 annual change
Runways:1
Longest:8169 × 148 ft (2490 × 45 m), paved

Time
Time Zone:UTC+0 (DST+1)
Local Time:

Weather
METAR:LPFR 041400Z 11009KT CAVOK 15/02 Q1028
TAF:LPFR 041100Z 0412/0512 09010KT CAVOK
BECMG 0417/0420 03005KT
BECMG 0508/0510 09008KT

Related Locations
Nearby:
Farthest:NZRW: 12314 mi / 19818 km
Ruawai, NTL, NZ

Find:

   beyond  
but within

Other Information
Maps:
NOTAMs:
Links:
Sources:

  
  • flag of Portugal
  • flag of Faro
  

Sectional Chart

Flight Planning
at skyvector.com

Satellite Image

Google Maps Satellite view

 

Copyright © 2004-2019 Karl L. Swartz. All rights reserved.
The Great Circle Mapper name and logo are trademarks of the Great Circle Mapper.
All other trademarks mentioned herein belong to their respective owners.
Please see credits for attibutions and further copyright information.

  Follow gcmap on Facebook Follow gcmap on Twitter GCmap on LinkedIn

hCard Microformat

Geo Microformat